When you browse on this site, cookies collect data to enhance your experience and personalize the content and advertising you see.
Visit our Privacy Policy to learn more. By continuing to use the site, you agree to this use of cookies and data.
  • In Romania
  • List of Countries
  • For 7 days
  • Water Temperature
  • Satellite Maps
  • Weather Map
  • Weather Widgets
  • user-avatar
    Login

    Hourly Weather Konstantynów Łódzki

    Today, 22 May, Wednesday

    Time Temperature Precipitation Wind Pressure Humidity
    00:00 +13°C° 0 mm 2 mps 737 mmHg 92%
    01:00 +11°C° 0 mm 3 mps 736 mmHg 93%
    02:00 +11°C° 0 mm 3 mps 736 mmHg 94%
    03:00 +11°C° 0 mm 3 mps 736 mmHg 95%
    04:00 +11°C° 0 mm 3 mps 737 mmHg 95%
    05:00 +11°C° 0 mm 3 mps 737 mmHg 93%
    06:00 +12°C° 0 mm 4 mps 737 mmHg 91%
    07:00 +13°C° 0 mm 4 mps 737 mmHg 89%
    08:00 +14°C° 0 mm 4 mps 737 mmHg 86%
    09:00 +14°C° 0 mm 4 mps 738 mmHg 83%
    10:00 +15°C° 0 mm 5 mps 738 mmHg 80%
    11:00 +17°C° 0.3 mm 5 mps 738 mmHg 75%
    12:00 +19°C° 0.3 mm 4 mps 738 mmHg 71%
    13:00 +20°C° 0.3 mm 4 mps 738 mmHg 66%
    14:00 +20°C° 0.7 mm 5 mps 738 mmHg 68%
    15:00 +20°C° 0.7 mm 5 mps 738 mmHg 70%
    16:00 +20°C° 0.7 mm 5 mps 738 mmHg 72%
    17:00 +19°C° 0.5 mm 4 mps 739 mmHg 76%
    18:00 +18°C° 0.5 mm 4 mps 739 mmHg 80%
    19:00 +17°C° 0.5 mm 3 mps 739 mmHg 84%
    20:00 +17°C° 0.5 mm 4 mps 740 mmHg 86%
    21:00 +15°C° 0.5 mm 4 mps 740 mmHg 89%
    22:00 +14°C° 0.5 mm 4 mps 740 mmHg 92%
    23:00 +14°C° 0.2 mm 4 mps 741 mmHg 93%

    Tomorrow, 23 May, Thursday

    Time Temperature Precipitation Wind Pressure Humidity
    00:00 +14°C° 0.2 mm 5 mps 741 mmHg 95%
    01:00 +14°C° 0.2 mm 5 mps 741 mmHg 96%
    02:00 +14°C° 0.2 mm 5 mps 741 mmHg 96%
    03:00 +14°C° 0.2 mm 5 mps 742 mmHg 95%
    04:00 +14°C° 0.2 mm 5 mps 742 mmHg 95%
    05:00 +14°C° 0.4 mm 5 mps 742 mmHg 95%
    06:00 +14°C° 0.4 mm 6 mps 743 mmHg 95%
    07:00 +13°C° 0.4 mm 6 mps 743 mmHg 94%
    08:00 +13°C° 0.3 mm 6 mps 743 mmHg 94%
    09:00 +13°C° 0.3 mm 6 mps 744 mmHg 94%
    10:00 +13°C° 0.3 mm 6 mps 744 mmHg 93%
    11:00 +13°C° 0.1 mm 6 mps 744 mmHg 91%
    12:00 +14°C° 0.1 mm 6 mps 744 mmHg 90%
    13:00 +15°C° 0.1 mm 6 mps 744 mmHg 88%
    14:00 +15°C° 0 mm 6 mps 744 mmHg 86%
    15:00 +15°C° 0 mm 5 mps 744 mmHg 84%
    16:00 +16°C° 0 mm 5 mps 744 mmHg 82%
    17:00 +15°C° 0 mm 5 mps 745 mmHg 83%
    18:00 +15°C° 0 mm 4 mps 745 mmHg 84%
    19:00 +15°C° 0 mm 4 mps 745 mmHg 85%
    20:00 +14°C° 0 mm 4 mps 745 mmHg 84%
    21:00 +14°C° 0 mm 4 mps 746 mmHg 83%
    22:00 +14°C° 0 mm 4 mps 746 mmHg 82%
    23:00 +13°C° 0 mm 4 mps 746 mmHg 79%

    Day after tomorrow, 24 May, Friday

    Time Temperature Precipitation Wind Pressure Humidity
    00:00 +13°C° 0 mm 3 mps 746 mmHg 76%
    01:00 +13°C° 0 mm 3 mps 746 mmHg 73%
    02:00 +12°C° 0 mm 3 mps 746 mmHg 73%
    03:00 +10°C° 0 mm 3 mps 746 mmHg 73%
    04:00 +9°C° 0 mm 3 mps 746 mmHg 73%
    05:00 +10°C° 0 mm 3 mps 746 mmHg 74%
    06:00 +11°C° 0 mm 3 mps 746 mmHg 75%
    07:00 +12°C° 0 mm 3 mps 746 mmHg 75%
    08:00 +14°C° 0 mm 3 mps 746 mmHg 70%
    09:00 +15°C° 0 mm 4 mps 746 mmHg 64%
    10:00 +18°C° 0 mm 4 mps 746 mmHg 59%
    11:00 +19°C° 0 mm 4 mps 745 mmHg 57%
    12:00 +20°C° 0 mm 4 mps 745 mmHg 54%
    13:00 +21°C° 0 mm 4 mps 745 mmHg 52%
    14:00 +21°C° 0 mm 4 mps 745 mmHg 53%
    15:00 +21°C° 0 mm 4 mps 744 mmHg 54%
    16:00 +21°C° 0 mm 3 mps 744 mmHg 55%
    17:00 +19°C° 0 mm 3 mps 744 mmHg 61%
    18:00 +18°C° 0 mm 3 mps 744 mmHg 67%
    19:00 +17°C° 0 mm 2 mps 744 mmHg 73%
    20:00 +16°C° 0 mm 2 mps 744 mmHg 77%
    21:00 +15°C° 0 mm 1 mps 744 mmHg 80%
    22:00 +14°C° 0 mm 1 mps 744 mmHg 84%
    23:00 +14°C° 0 mm 1 mps 744 mmHg 85%

    25 May, Saturday

    Time Temperature Precipitation Wind Pressure Humidity
    00:00 +13°C° 0 mm 1 mps 744 mmHg 86%
    01:00 +13°C° 0 mm 1 mps 744 mmHg 86%
    02:00 +13°C° 0 mm 1 mps 744 mmHg 87%
    03:00 +12°C° 0 mm 2 mps 743 mmHg 88%
    04:00 +12°C° 0 mm 2 mps 743 mmHg 89%
    05:00 +14°C° 0 mm 2 mps 743 mmHg 84%
    06:00 +14°C° 0 mm 3 mps 743 mmHg 80%
    07:00 +16°C° 0 mm 3 mps 743 mmHg 75%
    08:00 +18°C° 0.1 mm 3 mps 743 mmHg 70%
    09:00 +19°C° 0.1 mm 4 mps 743 mmHg 65%
    10:00 +20°C° 0.1 mm 4 mps 743 mmHg 60%
    11:00 +20°C° 0.2 mm 4 mps 743 mmHg 62%
    12:00 +20°C° 0.2 mm 4 mps 743 mmHg 64%
    13:00 +20°C° 0.2 mm 4 mps 743 mmHg 66%
    14:00 +20°C° 0.1 mm 5 mps 743 mmHg 65%
    15:00 +20°C° 0.1 mm 5 mps 743 mmHg 63%
    16:00 +20°C° 0.1 mm 5 mps 743 mmHg 62%
    17:00 +19°C° 0 mm 4 mps 743 mmHg 65%
    18:00 +18°C° 0 mm 4 mps 743 mmHg 68%
    19:00 +17°C° 0 mm 3 mps 743 mmHg 71%
    20:00 +14°C° 0 mm 3 mps 743 mmHg 76%
    21:00 +13°C° 0 mm 3 mps 743 mmHg 81%
    22:00 +12°C° 0 mm 3 mps 744 mmHg 87%
    23:00 +11°C° 0 mm 3 mps 744 mmHg 87%

    26 May, Sunday

    Time Temperature Precipitation Wind Pressure Humidity
    00:00 +10°C° 0 mm 2 mps 743 mmHg 88%
    01:00 +10°C° 0 mm 2 mps 743 mmHg 88%
    02:00 +9°C° 0 mm 2 mps 743 mmHg 89%
    03:00 +9°C° 0 mm 2 mps 743 mmHg 89%
    04:00 +9°C° 0 mm 3 mps 743 mmHg 90%
    05:00 +10°C° 0 mm 4 mps 743 mmHg 84%
    06:00 +10°C° 0 mm 5 mps 743 mmHg 79%
    07:00 +13°C° 0 mm 5 mps 743 mmHg 73%
    08:00 +13°C° 0 mm 6 mps 743 mmHg 71%
    09:00 +13°C° 0 mm 6 mps 743 mmHg 69%
    10:00 +14°C° 0 mm 6 mps 743 mmHg 67%
    11:00 +14°C° 0 mm 6 mps 743 mmHg 66%
    12:00 +14°C° 0 mm 7 mps 742 mmHg 64%
    13:00 +14°C° 0 mm 7 mps 742 mmHg 62%
    14:00 +14°C° 0 mm 7 mps 742 mmHg 62%
    15:00 +14°C° 0 mm 7 mps 742 mmHg 61%
    16:00 +13°C° 0 mm 8 mps 742 mmHg 61%
    17:00 +12°C° 0 mm 7 mps 742 mmHg 64%
    18:00 +11°C° 0 mm 6 mps 742 mmHg 68%
    19:00 +10°C° 0 mm 5 mps 742 mmHg 72%
    20:00 +10°C° 0 mm 4 mps 743 mmHg 73%
    21:00 +10°C° 0 mm 4 mps 743 mmHg 74%
    22:00 +9°C° 0 mm 3 mps 743 mmHg 75%
    23:00 +8°C° 0 mm 3 mps 743 mmHg 78%

    27 May, Monday

    Time Temperature Precipitation Wind Pressure Humidity
    00:00 +7°C° 0 mm 3 mps 744 mmHg 82%
    01:00 +7°C° 0 mm 3 mps 744 mmHg 85%
    02:00 +7°C° 0 mm 3 mps 744 mmHg 88%
    03:00 +5°C° 0 mm 3 mps 744 mmHg 91%
    04:00 +5°C° 0 mm 3 mps 744 mmHg 94%
    05:00 +7°C° 0 mm 4 mps 744 mmHg 87%
    06:00 +8°C° 0 mm 4 mps 744 mmHg 80%
    07:00 +10°C° 0 mm 4 mps 744 mmHg 73%
    08:00 +12°C° 0 mm 4 mps 744 mmHg 66%
    09:00 +13°C° 0 mm 4 mps 744 mmHg 60%
    10:00 +15°C° 0 mm 4 mps 744 mmHg 54%
    11:00 +17°C° 0 mm 4 mps 743 mmHg 54%
    12:00 +18°C° 0 mm 4 mps 743 mmHg 54%
    13:00 +19°C° 0 mm 4 mps 743 mmHg 55%
    14:00 +20°C° 0 mm 4 mps 742 mmHg 56%
    15:00 +20°C° 0 mm 3 mps 741 mmHg 57%
    16:00 +20°C° 0 mm 3 mps 741 mmHg 58%
    17:00 +19°C° 0 mm 3 mps 741 mmHg 62%
    18:00 +19°C° 0 mm 3 mps 740 mmHg 67%
    19:00 +18°C° 0 mm 3 mps 740 mmHg 71%
    20:00 +17°C° 0 mm 3 mps 740 mmHg 73%
    21:00 +17°C° 0 mm 4 mps 740 mmHg 74%
    22:00 +15°C° 0 mm 5 mps 740 mmHg 76%
    23:00 +15°C° 0 mm 4 mps 739 mmHg 79%
    Show more